This demonstration page uses our WeatherBlox Daily Observations layout. Learn more.

Left ArrowRight Arrow

Hourly Observations for January 25, 2019

Temp ( °F °C ) Dew Point ( °F °C ) Humidity (%) Winds ( mph kmh ) Pressure ( in mb ) Visibility ( mi km ) Precip ( " mm )
12:59 am 00:59 Cloudy 41 5 31 -0.6 67 67 N 9 15 29.95 1014 10 16 0.00 0.00
1:59 am 01:59 Mostly Cloudy 40 4.4 28 -2.2 63 63 N 10 17 29.97 1015 10 16 0.00 0.00
2:59 am 02:59 Mostly Cloudy 39 3.9 28 -2.2 65 65 N 8 13 29.98 1015 10 16 0.00 0.00
3:59 am 03:59 Clear 37 2.8 27 -2.8 67 67 NNW 7 11 29.99 1016 10 16 0.00 0.00
4:59 am 04:59 Clear 36 2.2 28 -2.2 73 73 NNW 7 11 30.00 1016 10 16 0.00 0.00
5:59 am 05:59 Partly Cloudy 36 2.2 28 -2.2 73 73 WNW 5 7 30.03 1017 10 16 0.00 0.00
6:59 am 06:59 Partly Cloudy 34 1.1 28 -2.2 79 79 Calm 30.06 1018 10 16 0.00 0.00
7:59 am 07:59 Partly Cloudy 34 1.1 29 -1.7 82 82 Calm 30.09 1019 10 16 0.00 0.00
8:59 am 08:59 Mostly Sunny 38 3.3 30 -1.1 73 73 SSW 6 9 30.10 1019 10 16 0.00 0.00
9:59 am 09:59 Mostly Sunny 40 4.4 30 -1.1 68 68 WSW 7 11 30.11 1020 10 16 0.00 0.00
10:59 am 10:59 Mostly Sunny 42 5.6 30 -1.1 62 62 WNW 10 17 30.13 1020 10 16 0.00 0.00
11:59 am 11:59 Mostly Sunny 43 6.1 28 -2.2 56 56 WNW 9 15 30.12 1020 10 16 0.00 0.00
12:59 pm 12:59 Mostly Sunny 44 6.7 26 -3.3 49 49 W 8 13 30.11 1020 10 16 0.00 0.00
1:59 pm 13:59 Mostly Sunny 45 7.2 26 -3.3 48 48 W 10 17 30.11 1020 10 16 0.00 0.00
2:59 pm 14:59 Partly Cloudy 46 7.8 26 -3.3 46 46 W 9 15 30.11 1020 10 16 0.00 0.00
3:59 pm 15:59 Mostly Sunny 47 8.3 22 -5.6 37 37 WNW 14 22 30.13 1020 10 16 0.00 0.00
4:59 pm 16:59 Mostly Sunny 44 6.7 23 -5 43 43 NW 9 15 30.14 1021 10 16 0.00 0.00
5:59 pm 17:59 Partly Cloudy 42 5.6 23 -5 47 47 NW 8 13 30.16 1022 10 16 0.00 0.00
6:59 pm 18:59 Partly Cloudy 38 3.3 25 -3.9 60 60 Calm 30.19 1022 10 16 0.00 0.00
7:59 pm 19:59 Mostly Clear 35 1.7 25 -3.9 67 67 Calm 30.19 1023 10 16 0.00 0.00
8:59 pm 20:59 Mostly Clear 32 0 26 -3.3 79 79 S 6 9 30.22 1023 10 16 0.00 0.00
9:59 pm 21:59 Mostly Clear 33 0.6 27 -2.8 78 78 SSW 3 6 30.24 1024 10 16 0.00 0.00
10:59 pm 22:59 Partly Cloudy 31 -0.6 26 -3.3 82 82 SW 5 7 30.23 1024 10 16 0.00 0.00
11:59 pm 23:59 Mostly Clear 31 -0.6 25 -3.9 79 79 SW 6 9 30.25 1024 10 16 0.00 0.00

Powered by AerisWeather